[[{"header":{"parameterUnit":"m.s-1","parameterCategory":1,"la1":30.2991,"la2":30.254,"lo1":-89.0895,"lo2":-89.0444,"dy":0.0017,"dx":0.0017,"nx":28,"ny":28,"refTime":"2023-10-04T03:00:00:Z","depth":0,"parameterNumber":2,"parameterNumberName":"U-component_of_WINDS"},"data":[0,0,0,0,0,0,0,0,0,0,0,0,0,0,0,0,0,0,0,0,0,0,0,0,0,0,0,0,0,0,0,0,0,0,0,0,0,0,0,0,0,0,0,0,0,0,0,0,0,0,0,0,0,0,0,0,0,0,-3.4725,-3.4725,0,-3.4757,-3.4757,-3.4757,-3.4659,-3.4656,-3.4653,-3.4651,-3.4683,-3.4686,-3.469,0,0,0,0,0,0,0,0,0,0,0,0,0,-3.4577,-3.4581,-3.4724,-3.4725,-3.4725,-3.4757,-3.4757,-3.4758,-3.466,-3.4656,-3.4653,-3.4649,-3.4682,-3.4686,-3.469,0,0,0,0,0,0,0,0,0,0,0,0,0,-3.4629,-3.4582,-3.4724,-3.468,-3.4677,-3.4757,-3.4757,-3.4758,-3.4661,-3.4656,-3.4652,-3.4648,-3.468,-3.4686,-3.4691,-3.4814,0,0,-3.4708,-3.471,0,0,0,0,0,0,0,0,-3.4626,-3.4634,-3.4686,-3.4684,-3.468,-3.4699,-3.4717,-3.4777,-3.4662,-3.4667,-3.4651,-3.4645,-3.4692,-3.4696,-3.4712,-3.4816,-3.4817,-3.4708,-3.4711,-3.4714,-3.4715,0,0,0,0,0,0,0,-3.4622,-3.4632,-3.4737,-3.4687,-3.4683,-3.4659,-3.4661,-3.4728,-3.4704,-3.4666,-3.4659,-3.4664,-3.4689,-3.4707,-3.4712,-3.4818,-3.4708,-3.4713,-3.4716,-3.4718,-3.5024,-3.5028,0,0,0,0,0,0,-3.4625,-3.463,-3.4736,-3.4738,-3.4641,-3.4665,-3.4668,-3.4698,-3.4703,-3.47,-3.4668,-3.466,-3.47,-3.4706,-3.4713,-3.4857,-3.4714,-3.4719,-3.4722,-3.5019,-3.5025,-3.503,0,0,0,0,0,0,-3.4622,-3.4635,-3.4735,-3.4682,-3.4693,-3.4672,-3.4707,-3.4701,-3.4718,-3.4705,-3.47,-3.4691,-3.4697,-3.4705,-3.479,-3.4857,-3.4721,-3.4726,-3.5013,-3.5021,-3.5028,-3.5147,0,0,0,0,0,0,-3.4618,-3.4635,-3.4682,-3.4684,-3.4696,-3.4812,-3.4711,-3.4705,-3.4728,-3.4717,-3.4725,-3.4721,-3.4694,-3.4782,-3.4795,-3.4862,-3.4731,-3.5007,-3.5017,-3.5025,-3.5137,-3.5157,-3.5175,0,0,0,0,0,-3.4613,-3.4714,-3.4685,-3.4698,-3.4754,-3.4816,-3.4823,-3.4789,-3.4734,-3.4781,-3.4772,-3.4721,-3.4848,-3.4792,-3.4806,-3.4875,-3.5003,-3.5014,-3.5025,-3.5128,-3.5153,-3.5174,0,0,0,0,0,0,-3.472,-3.4713,-3.4681,-3.4785,-3.4802,-3.4799,-3.4857,-3.4817,-3.4849,-3.4838,-3.4794,-3.4797,-3.4889,-3.489,-3.4828,-3.4994,-3.4916,-3.493,-3.499,-3.5013,-3.5032,-3.5029,-3.4735,0,0,0,0,0,-3.4755,-3.4806,-3.4798,-3.4891,-3.4901,-3.4878,-3.4903,-3.4876,-3.4891,-3.4898,-3.4895,-3.4912,-3.4955,-3.4984,-3.5024,-3.5137,-3.5137,-3.5191,-3.521,-3.5226,-3.5238,-3.5297,-3.5321,-3.5066,-3.5066,-3.5066,0,0,-3.4829,-3.4832,-3.4867,-3.4912,-3.4922,-3.4975,-3.4884,-3.4944,-3.4983,-3.4907,-3.4986,-3.4985,-3.5001,-3.51,-3.5144,-3.5104,-3.5309,-3.524,-3.5252,-3.5256,-3.5311,-3.5335,-3.5357,-3.5073,-3.5072,-3.5071,0,0,-3.4991,-3.4999,-3.5077,-3.5089,-3.5104,-3.5089,-3.5108,-3.5111,-3.5108,-3.5187,-3.5131,-3.5176,-3.5252,-3.5265,-3.5282,-3.5449,-3.5403,-3.5463,-3.5562,-3.562,-3.564,-3.5658,-3.5716,-3.5738,-3.5476,-3.5476,-3.5477,0,-3.5081,-3.5159,-3.5122,-3.5186,-3.5207,-3.5141,-3.5219,-3.5232,-3.526,-3.5276,-3.5232,-3.5325,-3.5331,-3.5432,-3.5473,-3.5489,-3.5509,-3.5461,-3.564,-3.5658,-3.5674,-3.5729,-3.5751,-3.5483,-3.5483,-3.5482,-3.5481,0,-3.5268,-3.5323,-3.5384,-3.5412,-3.5441,-3.5512,-3.5485,-3.5518,-3.5489,-3.5478,-3.5559,-3.5564,-3.5603,-3.5625,-3.5597,-3.5723,-3.5697,-3.5648,-3.5567,-3.5706,-3.5757,-3.5778,-3.5493,-3.5491,-3.5489,-3.5487,0,0,-3.5496,-3.5504,-3.5527,-3.5539,-3.5552,-3.5593,-3.5661,-3.5699,-3.5728,-3.575,-3.5805,-3.5871,-3.5825,-3.5844,-3.5817,-3.5869,-3.6,-3.5812,-3.5812,-3.5846,-3.6137,-3.6174,-3.6199,-3.597,-3.5974,-3.5977,-3.6135,0,-3.5654,-3.577,-3.5739,-3.5855,-3.5904,-3.5843,-3.5902,-3.5916,-3.5908,-3.5949,-3.5939,-3.5986,-3.5923,-3.5934,-3.5982,-3.5974,-3.6057,-3.5962,-3.602,-3.6023,-3.6017,-3.6226,-3.6264,-3.6413,-3.6155,-3.6159,-3.6161,0,-3.5854,-3.5884,-3.6004,-3.6009,-3.6028,-3.6082,-3.6114,-3.6154,-3.6169,-3.6159,-3.6181,-3.6144,-3.621,-3.6131,-3.6222,-3.6158,-3.618,-3.618,-3.6185,-3.6187,-3.6099,-3.6233,-3.646,-3.6482,-3.6193,-3.619,-3.6188,0,-3.6007,-3.6077,-3.6158,-3.617,-3.6178,-3.6217,-3.6222,-3.6232,-3.6257,-3.6286,-3.6301,-3.6337,-3.6357,-3.6385,-3.6358,-3.6304,-3.6453,-3.6372,-3.6446,-3.6447,-3.6479,-3.6477,-3.6712,-3.6496,-3.6496,-3.6495,-3.6495,0,-3.6186,-3.6262,-3.6227,-3.6276,-3.6359,-3.6323,-3.6406,-3.6404,-3.6414,-3.6462,-3.6412,-3.6458,-3.642,-3.6463,-3.6443,-3.652,-3.653,-3.6523,-3.6517,-3.6527,-3.6528,-3.654,-3.6529,-3.6501,-3.65,-3.6499,-3.6498,0,-3.637,-3.635,-3.6434,-3.6434,-3.6436,-3.6497,-3.6497,-3.6543,-3.6531,-3.6593,-3.6605,-3.6587,-3.6635,-3.6611,-3.6661,-3.6647,-3.6747,-3.6727,-3.6742,-3.6736,-3.6811,-3.6804,-3.7061,-3.7092,-3.6858,-3.686,-3.6862,0,-3.6485,-3.6542,-3.6549,-3.6577,-3.6585,-3.6632,-3.6657,-3.6624,-3.6652,-3.6674,-3.6717,-3.676,-3.6793,-3.6872,-3.6863,-3.6901,-3.6881,-3.6968,-3.6886,-3.6895,-3.6881,-3.6877,-3.6882,-3.6984,-3.6987,-3.6989,-3.6991,0,-3.6691,-3.6678,-3.6716,-3.6751,-3.6782,-3.6808,-3.683,-3.6856,-3.6824,-3.6858,-3.6906,-3.6932,-3.6982,-3.7026,-3.7059,-3.7063,-3.7022,-3.7017,-3.7036,-3.7047,-3.7052,-3.7049,-3.6786,-3.7011,-3.7009,-3.7008,-3.7006,-3.7006,-3.6843,-3.689,-3.6902,-3.6946,-3.6959,-3.6981,-3.7023,-3.7017,-3.7057,-3.7095,-3.7074,-3.713,-3.7143,-3.7183,-3.7194,-3.7237,-3.7202,-3.723,-3.7237,-3.7244,-3.7253,-3.7047,-3.7243,-3.7242,-3.7242,-3.7241,-3.7241,0,-3.7045,-3.705,-3.7091,-3.7122,-3.7157,-3.7116,-3.7137,-3.7169,-3.7219,-3.7235,-3.7269,-3.7324,-3.7366,-3.7361,-3.7399,-3.7435,-3.7417,-3.7446,-3.7442,-3.7444,-3.7283,-3.7262,-3.746,-3.746,-3.746,-3.746,-3.746,-3.746,-3.7154,-3.7232,-3.7221,-3.7304,-3.7308,-3.7363,-3.7379,-3.7398,-3.741,-3.7474,-3.7509,-3.7505,-3.7513,-3.7551,-3.7588,-3.7585,-3.7601,-3.7638,-3.7628,-3.7477,-3.7455,-3.7435,-3.7415,-3.7642,-3.7642,-3.7785,-3.7787,-3.7788]},{"header":{"parameterUnit":"m.s-1","parameterCategory":1,"la1":30.2991,"la2":30.254,"lo1":-89.0895,"lo2":-89.0444,"dy":0.0017,"dx":0.0017,"nx":28,"ny":28,"refTime":"2023-10-04T03:00:00:Z","depth":0,"parameterNumber":3,"parameterNumberName":"V-component_of_WINDS"},"data":[0,0,0,0,0,0,0,0,0,0,0,0,0,0,0,0,0,0,0,0,0,0,0,0,0,0,0,0,0,0,0,0,0,0,0,0,0,0,0,0,0,0,0,0,0,0,0,0,0,0,0,0,0,0,0,0,0,0,2.2863,2.2864,0,2.2948,2.2949,2.295,2.2958,2.2958,2.2957,2.2956,2.3038,2.304,2.3043,0,0,0,0,0,0,0,0,0,0,0,0,0,2.2705,2.2707,2.2863,2.2864,2.2865,2.2948,2.2949,2.295,2.2959,2.2957,2.2956,2.2955,2.3037,2.304,2.3044,0,0,0,0,0,0,0,0,0,0,0,0,0,2.278,2.2708,2.2863,2.2879,2.2882,2.2947,2.2949,2.295,2.2959,2.2957,2.2956,2.2955,2.3035,2.304,2.3044,2.3097,0,0,2.3058,2.306,0,0,0,0,0,0,0,0,2.2775,2.2785,2.2876,2.2878,2.2881,2.2941,2.2923,2.2999,2.2959,2.2929,2.2956,2.2954,2.3006,2.3013,2.3031,2.3101,2.3104,2.3058,2.3061,2.3063,2.3064,0,0,0,0,0,0,0,2.277,2.2782,2.2896,2.2877,2.288,2.2881,2.2891,2.2937,2.2974,2.2932,2.2933,2.2943,2.3007,2.3027,2.3033,2.3106,2.3058,2.3062,2.3065,2.3066,2.3223,2.3225,0,0,0,0,0,0,2.2762,2.2777,2.2894,2.2899,2.2824,2.2885,2.2896,2.2923,2.2973,2.298,2.2944,2.2943,2.302,2.3028,2.3036,2.3102,2.3063,2.3067,2.3069,2.3222,2.3223,2.3225,0,0,0,0,0,0,2.2759,2.2773,2.289,2.2838,2.2854,2.2889,2.292,2.2925,2.2945,2.2983,2.2989,2.2958,2.302,2.303,2.3082,2.3105,2.3069,2.3073,2.322,2.3222,2.3224,2.3233,0,0,0,0,0,0,2.2754,2.2771,2.2793,2.2839,2.2856,2.2936,2.2922,2.2928,2.2954,2.2953,2.2997,2.3003,2.3019,2.3076,2.3087,2.311,2.3076,2.3218,2.3221,2.3224,2.3231,2.3235,2.3239,0,0,0,0,0,2.2749,2.2791,2.2794,2.2808,2.2884,2.2937,2.2947,2.2966,2.2955,2.2977,2.3001,2.3002,2.3101,2.3081,2.3094,2.3119,2.3217,2.322,2.3223,2.3229,2.3234,2.3239,0,0,0,0,0,0,2.2744,2.2797,2.2801,2.286,2.2894,2.2939,2.2966,2.2971,2.3008,2.3006,2.3027,2.3037,2.3088,2.3109,2.3086,2.3173,2.3157,2.3163,2.3157,2.3163,2.3167,2.316,2.308,0,0,0,0,0,2.2751,2.2791,2.2834,2.2882,2.2899,2.293,2.2953,2.2966,2.3002,2.3016,2.3043,2.3077,2.3116,2.314,2.3178,2.3234,2.3243,2.3258,2.3262,2.3265,2.3269,2.33,2.3307,2.3236,2.3236,2.3236,0,0,2.2763,2.2797,2.2821,2.2882,2.291,2.295,2.2942,2.2984,2.3014,2.3021,2.3073,2.3095,2.3133,2.3188,2.3213,2.3206,2.3291,2.3269,2.3271,2.3274,2.3305,2.3311,2.3317,2.3238,2.3238,2.3238,0,0,2.2806,2.2836,2.2879,2.2908,2.2952,2.2972,2.2982,2.3027,2.3042,2.3094,2.3101,2.3136,2.3202,2.323,2.3252,2.3307,2.3309,2.3319,2.334,2.337,2.3375,2.338,2.3399,2.3406,2.3324,2.3324,2.3324,0,2.2815,2.2878,2.29,2.2943,2.2969,2.2981,2.3023,2.305,2.3103,2.312,2.3112,2.3196,2.3223,2.3284,2.3298,2.3316,2.3328,2.3313,2.3373,2.3378,2.3383,2.3402,2.3409,2.3324,2.3324,2.3324,2.3324,0,2.2887,2.293,2.2959,2.3012,2.3042,2.3084,2.3112,2.3139,2.3149,2.317,2.3223,2.3256,2.33,2.3316,2.3325,2.3379,2.3373,2.3369,2.3354,2.3391,2.3408,2.3415,2.3326,2.3325,2.3325,2.3325,0,0,2.2928,2.2994,2.3004,2.3029,2.3078,2.3111,2.3154,2.32,2.3222,2.3259,2.3294,2.3351,2.3348,2.3374,2.3386,2.3413,2.3454,2.3406,2.3407,2.3413,2.3514,2.3516,2.3524,2.3456,2.3458,2.3459,2.351,0,2.2976,2.3055,2.3077,2.3142,2.3182,2.3194,2.3231,2.3265,2.3286,2.3321,2.3344,2.3383,2.3377,2.3392,2.3419,2.3443,2.3474,2.344,2.3488,2.349,2.3477,2.3533,2.3535,2.3582,2.3517,2.3519,2.352,0,2.3043,2.3083,2.3153,2.3198,2.3215,2.3249,2.3292,2.3327,2.3365,2.3378,2.3408,2.3418,2.3462,2.3446,2.3506,2.3483,2.3504,2.3519,2.3521,2.3525,2.3506,2.3538,2.3598,2.3605,2.3531,2.353,2.3529,0,2.3065,2.3136,2.3187,2.3208,2.3262,2.3285,2.3308,2.3346,2.3372,2.341,2.3427,2.3468,2.3491,2.3523,2.3544,2.353,2.3602,2.3588,2.3613,2.3613,2.3627,2.3625,2.369,2.3642,2.3642,2.3642,2.3642,0,2.3116,2.3158,2.3198,2.323,2.3277,2.3302,2.3348,2.3371,2.3405,2.344,2.3452,2.3485,2.3511,2.3547,2.3564,2.3611,2.3621,2.3632,2.3636,2.363,2.3629,2.3644,2.364,2.3644,2.3643,2.3643,2.3643,0,2.3148,2.3177,2.3234,2.3281,2.3294,2.3327,2.3367,2.3397,2.3419,2.3463,2.3475,2.3509,2.3552,2.3577,2.363,2.3641,2.3693,2.3696,2.3681,2.3682,2.3706,2.3703,2.3782,2.3793,2.3738,2.3739,2.3739,0,2.3179,2.3212,2.3263,2.3289,2.3313,2.3354,2.3381,2.3406,2.3434,2.3481,2.3505,2.3549,2.3586,2.3654,2.3682,2.3723,2.3726,2.3751,2.3732,2.3726,2.3725,2.3723,2.3726,2.3753,2.3754,2.3754,2.3755,0,2.3229,2.3242,2.3282,2.3327,2.336,2.3396,2.3432,2.3452,2.3483,2.3513,2.3558,2.3587,2.3643,2.3686,2.3729,2.3752,2.3758,2.3761,2.3769,2.3763,2.3753,2.3758,2.3689,2.3758,2.3758,2.3758,2.3757,2.3757,2.3261,2.3291,2.3332,2.3376,2.3407,2.344,2.3471,2.3498,2.3536,2.3585,2.3597,2.3644,2.3682,2.3741,2.3765,2.3801,2.3797,2.3808,2.3811,2.3814,2.3814,2.3748,2.3809,2.3809,2.3809,2.3809,2.3809,0,2.3311,2.3339,2.338,2.343,2.3465,2.347,2.351,2.3538,2.358,2.3616,2.3652,2.3704,2.3746,2.3778,2.3821,2.3844,2.3848,2.3854,2.3852,2.3857,2.3816,2.3804,2.3851,2.3851,2.3851,2.385,2.385,2.385,2.3342,2.3393,2.3411,2.3477,2.3504,2.3552,2.3574,2.3605,2.3633,2.3691,2.3727,2.3749,2.3782,2.3828,2.3867,2.3875,2.389,2.3896,2.3904,2.3865,2.386,2.3856,2.3845,2.3899,2.3899,2.3943,2.3943,2.3943]}]]